Temperature
1 2 2 2 3 2 2 2 2 3 3 5 5 4 4 5 5 5 5 5 5 5 5 5 5 5 6 6 6 6 6 6 7 7 7 8 8 9 9 9 10 10 10 10
1 2 2 2 3 3 3 3 3 3 3 4 4 4 4 4 4 4 4 5 5 5 5 5 5 5 5 5 5 5 5 6 6 7 7 7 7 8 8 9 9 9 9 9
1 1 1 2 3 3 3 3 3 3 3 4 3 4 4 4 4 4 4 4 4 4 4 4 4 4 4 4 5 5 5 5 5 6 6 7 7 7 8 8 9 9 9 9
0 0 1 3 3 3 3 3 3 3 3 3 3 4 4 5 4 4 4 4 4 4 4 4 4 4 4 4 4 4 5 5 5 5 6 6 6 7 7 8 8 8 8 8
0 -0 1 2 3 2 2 2 3 3 3 3 4 3 3 4 4 4 4 4 4 4 3 3 3 3 3 3 4 4 4 4 4 5 5 5 6 6 7 7 7 8 8 8
-0 0 1 2 3 3 3 1 2 2 2 2 2 1 2 4 4 4 4 4 3 3 3 3 3 3 3 3 3 3 3 4 4 4 4 5 5 6 6 7 7 7 8 8
-0 0 1 2 2 3 2 2 3 3 3 2 1 2 3 3 3 3 3 3 3 3 3 2 2 2 2 2 3 3 3 3 3 4 4 4 5 5 6 6 7 7 7 7
-1 -0 1 2 2 2 2 3 3 3 3 3 3 3 3 3 3 3 3 3 3 2 2 2 2 2 2 2 2 2 2 3 3 3 3 4 5 5 6 6 6 7 7 7
-0 1 2 3 3 3 4 3 3 3 3 3 2 2 3 2 2 2 2 2 2 2 2 2 2 2 2 2 2 2 2 2 3 3 3 3 4 5 5 5 6 6 6 6
-1 -0 1 2 3 3 3 3 3 3 3 2 2 2 2 2 2 2 2 2 2 1 1 1 1 1 1 1 1 2 2 2 2 2 3 3 4 4 4 5 5 5 6 6
-1 -0 0 2 2 3 3 3 2 2 2 2 2 2 1 1 1 1 1 1 1 1 1 1 1 1 1 1 1 1 1 1 2 2 2 3 3 3 4 4 4 5 5 5
0 1 1 1 3 3 2 2 2 2 2 1 1 1 1 1 1 1 1 1 0 0 0 0 0 0 0 0 0 1 1 1 1 1 2 2 2 3 3 4 4 4 5 5
2 3 2 2 2 2 2 1 1 1 1 1 1 1 0 0 0 0 0 0 -0 -0 -0 -0 -0 -0 -0 -0 0 0 0 0 1 1 1 2 2 2 2 3 4 4 4 4
2 2 1 1 1 1 1 1 1 0 0 0 0 0 -0 -0 -1 -1 -0 -0 -0 -0 -1 -1 -1 -0 -1 -1 -0 -0 -0 0 0 1 1 1 1 1 1 2 2 3 4 4
1 1 1 1 0 0 0 -0 -0 -0 -0 -0 -0 -1 -1 -1 -1 -1 -1 -1 -1 -1 -1 -1 -1 -1 -1 -1 -1 -1 -1 -0 -0 0 0 0 1 1 1 1 1 2 3 3
0 0 -0 -0 -1 -1 -1 -1 -1 -1 -1 -1 -1 -2 -2 -2 -2 -2 -2 -2 -2 -2 -2 -1 -1 -1 -1 -1 -1 -1 -1 -1 -1 -1 -0 -0 0 0 0 1 1 1 2 2
-1 -1 -2 -2 -2 -1 -2 -2 -2 -2 -2 -2 -2 -2 -2 -2 -2 -2 -2 -2 -2 -2 -2 -2 -2 -2 -2 -2 -2 -2 -1 -1 -1 -1 -1 -1 -0 -0 0 0 0 1 1 2
-1 -2 -2 -2 -2 -2 -2 -2 -2 -3 -3 -3 -3 -3 -3 -3 -3 -3 -3 -3 -3 -3 -3 -3 -2 -2 -2 -2 -2 -2 -2 -2 -2 -1 -1 -1 -1 -1 -0 -0 0 0 1 1
-2 -2 -2 -2 -3 -3 -3 -3 -3 -3 -3 -4 -4 -4 -4 -4 -4 -4 -4 -4 -3 -3 -3 -3 -3 -3 -3 -3 -3 -3 -2 -2 -2 -2 -2 -1 -1 -1 -1 -0 -0 0 0 0
-2 -2 -3 -3 -3 -3 -3 -4 -4 -4 -4 -4 -4 -4 -4 -4 -4 -5 -4 -4 -4 -4 -4 -4 -4 -4 -3 -3 -3 -3 -3 -3 -3 -2 -2 -2 -2 -2 -1 -1 -0 -0 0 0
-3 -3 -3 -4 -4 -4 -4 -4 -4 -5 -5 -5 -5 -5 -5 -5 -5 -5 -5 -5 -5 -5 -5 -4 -4 -4 -4 -4 -4 -3 -3 -3 -3 -3 -3 -3 -2 -2 -2 -1 -1 -1 -0 -0
-4 -4 -4 -4 -4 -4 -5 -5 -5 -5 -5 -5 -5 -5 -5 -5 -5 -5 -5 -5 -5 -5 -5 -5 -5 -5 -4 -4 -4 -4 -4 -4 -4 -4 -4 -3 -3 -3 -2 -2 -1 -1 -1 -1
-4 -4 -5 -5 -5 -5 -5 -5 -6 -6 -6 -6 -6 -6 -6 -6 -6 -6 -6 -6 -6 -6 -6 -6 -5 -5 -5 -5 -5 -5 -5 -4 -4 -4 -4 -4 -3 -3 -2 -2 -2 -2 -1 -1
-5 -5 -5 -6 -6 -6 -6 -6 -6 -6 -6 -6 -6 -6 -6 -6 -6 -6 -6 -6 -6 -6 -6 -6 -6 -6 -6 -5 -5 -5 -5 -5 -5 -4 -4 -4 -4 -3 -3 -2 -2 -2 -2 -2
-6 -6 -6 -6 -7 -7 -7 -7 -7 -7 -7 -7 -6 -6 -7 -7 -7 -6 -6 -6 -6 -6 -6 -6 -6 -6 -6 -6 -5 -5 -5 -5 -5 -5 -5 -4 -4 -4 -3 -3 -3 -2 -2 -2
-6 -7 -7 -7 -7 -7 -8 -8 -8 -8 -8 -7 -7 -7 -7 -7 -7 -7 -7 -7 -6 -6 -6 -6 -6 -6 -6 -6 -6 -5 -5 -5 -5 -5 -5 -5 -4 -4 -4 -3 -3 -3 -2 -2
-7 -7 -8 -8 -8 -8 -8 -8 -8 -8 -8 -8 -8 -7 -7 -7 -7 -7 -7 -7 -7 -7 -6 -6 -6 -6 -6 -6 -6 -6 -6 -6 -5 -5 -5 -5 -4 -4 -4 -4 -3 -3 -3 -2
Wind_Speed
13 13 8 11 13 10 11 11 12 14 16 19 14 10 8 7 7 6 6 6 5 4 3 3 4 4 5 5 5 5 4 5 6 4 3 4 4 5 6 7 8 9 9 9
10 11 12 17 18 18 17 15 16 18 20 17 14 10 8 7 6 6 6 6 5 4 4 4 4 5 5 5 6 5 4 5 6 4 3 3 4 4 5 5 6 8 9 9
9 7 6 11 13 14 10 9 9 14 16 12 9 8 7 6 5 5 6 5 4 4 4 5 5 5 5 5 5 5 4 5 5 5 4 4 4 3 4 5 6 7 8 9
5 2 9 9 4 7 10 12 12 11 11 9 9 8 5 5 5 6 5 4 4 4 4 4 4 4 4 4 4 5 5 5 6 5 4 4 4 3 3 4 5 7 8 7
4 6 10 9 5 4 6 8 8 10 10 9 7 4 5 5 4 5 5 4 4 4 3 3 4 5 4 4 4 4 5 6 6 6 5 4 4 4 3 3 4 6 7 7
5 6 8 8 4 2 1 7 6 5 7 6 2 3 7 5 3 4 4 3 3 3 2 3 4 4 3 4 4 5 6 6 6 6 6 5 4 5 4 4 4 5 6 6
10 9 10 8 4 2 3 7 5 4 5 4 4 7 6 5 4 4 3 3 3 2 2 3 4 3 3 4 4 5 5 6 6 6 5 5 4 4 3 3 4 5 5 5
7 8 10 5 4 6 8 5 4 4 5 5 6 7 6 5 5 4 4 4 3 2 3 4 3 2 3 4 5 5 5 5 6 6 5 4 4 4 2 3 3 4 4 4
10 10 6 5 8 7 5 6 6 6 6 6 6 7 6 6 6 5 5 5 3 3 4 4 3 2 3 5 5 4 5 5 6 6 5 4 4 4 2 2 2 3 4 4
8 11 10 9 8 8 7 8 8 7 7 6 7 8 7 6 6 6 5 5 4 3 4 5 4 4 4 5 4 4 4 5 5 5 5 5 4 2 2 2 2 3 3 4
10 10 8 9 11 11 9 7 7 7 7 8 8 8 7 7 7 6 6 5 4 4 5 6 5 5 4 4 3 4 4 5 5 5 5 5 3 2 2 2 3 3 3 4
12 10 8 8 8 8 8 8 8 8 8 7 7 8 7 7 7 6 6 5 4 5 5 5 5 5 4 3 3 3 4 4 4 4 4 4 3 3 4 3 4 4 4 4
13 10 9 9 7 7 7 7 7 7 8 8 7 7 7 7 6 5 5 5 5 5 5 5 5 5 5 4 3 4 4 4 4 4 4 3 2 2 3 5 5 3 2 3
10 8 8 8 7 7 7 7 6 6 7 6 6 6 5 6 5 5 6 5 5 5 5 4 4 5 5 4 3 4 4 5 4 4 3 3 2 2 2 2 3 3 3 1
7 7 8 7 6 6 5 4 5 6 6 5 4 4 4 5 6 6 5 4 4 4 4 4 4 5 4 3 4 4 4 3 3 3 3 2 2 2 2 2 2 2 2 1
6 5 5 5 6 6 5 4 5 6 6 5 5 5 5 5 5 5 4 3 3 5 5 5 5 5 4 3 3 3 3 5 4 3 3 2 2 2 2 2 2 2 2 1
4 5 5 5 6 6 6 6 6 6 5 6 6 5 4 4 4 4 4 4 4 5 5 5 6 5 4 4 3 3 3 4 5 4 3 2 2 2 2 2 2 2 2 3
6 7 6 6 6 6 6 5 5 5 5 5 5 4 4 4 5 5 5 4 4 5 5 5 4 4 4 4 3 3 3 3 3 3 3 3 2 2 2 3 3 3 2 2
2 2 3 3 4 4 4 5 5 4 4 3 3 4 4 5 5 5 4 4 5 6 5 4 6 4 4 5 4 3 3 3 3 3 3 4 3 2 3 3 3 3 2 2
2 2 2 2 3 2 3 3 3 3 3 3 3 3 4 5 5 4 4 5 6 5 5 5 4 4 4 4 5 3 3 4 4 3 3 3 3 3 3 3 3 3 2 2
2 3 3 3 3 3 3 2 2 3 4 3 3 4 5 5 5 4 4 6 6 5 5 6 4 3 3 4 5 3 4 4 4 4 3 3 3 3 3 3 3 2 2 2
2 2 3 3 3 4 4 3 3 3 4 4 4 4 5 5 5 5 5 5 6 6 4 3 3 5 5 5 3 3 4 4 4 3 3 3 3 3 4 3 2 2 3 3
2 2 3 3 4 4 5 4 3 3 4 5 5 5 5 6 5 5 6 4 4 6 4 4 6 8 7 4 3 3 4 4 4 4 3 3 4 4 4 3 3 3 3 3
2 3 3 3 3 3 5 5 5 4 5 5 5 5 5 5 5 4 5 7 7 7 4 5 8 8 6 2 3 3 3 4 4 3 3 3 3 3 3 3 3 3 4 4
3 3 3 3 3 4 4 5 5 5 5 5 5 5 4 4 4 5 4 5 6 6 3 5 7 7 3 2 3 3 3 4 4 3 3 3 3 3 3 3 3 3 4 4
3 3 3 4 4 4 4 4 4 4 4 5 5 5 4 4 4 4 4 4 4 5 4 3 3 3 2 3 3 3 3 3 3 3 3 3 3 3 3 3 4 4 4 4
3 3 3 3 3 3 3 3 4 5 5 5 6 5 5 4 4 3 4 3 3 3 3 3 2 2 2 2 3 3 3 3 3 3 3 3 3 3 3 4 3 4 4 5
Wind_Direction
256 265 265 262 269 261 242 241 248 263 267 273 279 277 278 280 288 295 304 309 308 303 303 311 320 325 325 320 321 316 312 308 294 280 284 281 263 227 214 210 208 198 197 197
270 262 261 268 267 260 257 253 251 262 270 270 277 279 277 272 272 277 286 290 294 296 299 304 307 314 319 319 320 324 315 308 309 302 292 292 276 255 218 209 207 194 194 196
271 281 287 267 252 244 238 233 231 248 258 273 278 272 264 265 271 268 273 278 287 289 284 286 293 301 303 308 320 325 319 314 314 314 302 293 277 266 232 217 203 199 198 199
268 304 251 252 227 224 238 252 242 246 263 269 264 269 268 260 251 258 265 273 282 286 291 295 302 307 305 312 321 323 322 321 322 320 307 296 285 266 257 236 204 202 201 200
231 252 271 283 261 212 226 266 252 250 265 275 277 300 299 280 251 242 244 259 268 272 284 300 307 307 310 317 323 325 322 322 324 324 309 299 291 272 265 246 219 205 199 198
224 241 257 260 252 215 146 283 271 245 260 272 294 293 285 286 264 257 264 274 278 289 302 308 305 311 320 317 323 319 313 314 318 320 311 297 291 281 268 234 228 210 202 198
231 245 261 257 241 126 193 253 270 241 246 245 233 243 264 273 270 261 264 272 280 291 294 292 300 316 319 317 312 307 311 314 316 317 314 304 298 289 264 234 226 210 198 196
209 231 253 230 166 192 225 246 253 250 245 244 254 265 269 265 264 267 275 279 278 286 293 298 304 314 313 308 304 310 315 317 316 320 320 315 308 302 266 229 211 196 187 192
207 226 245 205 211 229 227 242 251 251 258 253 258 264 267 265 264 264 264 265 265 261 284 298 299 292 289 294 302 313 320 319 320 322 318 317 304 291 270 232 199 193 188 189
242 254 254 255 255 255 246 244 247 249 252 246 253 260 263 266 267 268 265 260 257 255 271 286 291 287 276 286 298 306 310 312 315 320 319 321 304 276 247 236 214 201 193 191
247 261 268 255 244 247 254 256 259 260 254 249 249 260 258 259 261 261 259 256 250 244 253 267 278 282 282 286 297 302 302 304 308 311 309 314 303 282 272 248 228 228 213 200
246 241 230 245 239 236 246 255 257 262 268 263 250 254 258 259 257 255 255 253 251 248 252 263 273 280 284 285 283 286 296 299 301 306 311 312 313 329 330 306 300 281 244 225
245 252 245 252 253 244 245 252 255 253 256 263 261 255 256 258 257 253 253 249 244 245 249 256 266 276 284 283 279 271 273 283 290 296 306 309 314 326 333 343 341 315 265 226
244 249 257 256 258 261 256 256 259 262 258 255 256 260 259 257 259 252 251 250 250 251 253 255 261 269 274 270 271 271 272 278 282 287 298 298 299 297 294 303 317 325 323 249
248 236 240 253 261 266 262 265 272 274 274 273 267 260 258 258 259 259 258 255 255 256 257 256 259 266 270 267 268 272 275 276 280 287 293 282 291 292 288 285 286 288 316 319
252 251 248 252 260 268 274 271 266 270 272 275 275 270 266 263 262 265 265 251 247 256 258 256 257 262 265 263 264 269 273 277 282 283 283 271 281 276 271 270 272 263 248 233
242 258 258 263 265 268 264 258 254 260 265 267 268 273 277 279 275 272 275 270 259 258 258 255 257 261 257 250 247 253 265 277 282 286 268 257 256 255 255 259 257 256 249 226
230 240 246 249 256 262 268 268 263 264 265 268 276 279 274 270 269 270 276 284 285 280 268 256 256 259 251 243 240 242 250 260 265 266 261 260 254 247 247 252 254 251 246 221
268 268 274 270 258 252 261 270 273 272 274 275 275 273 274 272 273 274 278 277 272 273 272 261 261 254 246 245 251 238 245 257 264 260 261 265 268 256 247 247 248 235 220 209
5 354 335 321 311 287 281 288 291 293 293 286 283 286 289 287 287 283 279 272 263 258 262 264 257 243 240 244 253 238 237 244 249 252 256 249 249 257 252 249 238 219 203 194
354 345 339 329 321 317 307 300 299 300 305 300 284 279 282 288 290 280 275 278 278 267 262 264 256 241 237 244 251 234 233 239 240 242 248 246 246 256 254 247 234 216 198 181
324 326 322 320 320 319 319 314 302 300 305 303 297 291 289 291 292 286 270 263 275 278 275 257 248 249 250 255 228 225 232 233 237 238 242 239 239 246 245 233 226 213 196 182
302 307 313 313 306 305 312 313 306 302 296 295 293 290 285 283 282 277 283 279 274 277 275 253 256 262 262 248 230 229 229 231 236 237 240 239 240 240 230 221 218 205 191 179
302 306 306 309 313 313 311 310 310 306 296 293 287 282 282 287 288 275 270 281 286 285 273 263 267 267 264 235 222 222 224 227 231 236 241 240 240 235 222 210 209 202 186 176
285 287 292 301 305 298 295 304 311 308 304 302 297 294 288 275 270 281 286 286 284 286 277 273 275 274 258 227 222 223 225 226 228 229 233 235 231 225 219 209 201 193 184 178
274 275 273 268 270 279 288 296 300 302 303 304 305 304 300 293 285 287 290 286 279 285 282 270 268 265 236 225 228 230 228 237 247 243 233 231 223 217 213 203 193 190 182 174
278 277 281 291 288 281 282 285 288 293 295 294 297 298 296 296 297 297 295 292 291 286 278 270 258 240 232 227 228 232 231 227 224 227 230 226 218 214 204 193 190 181 172 166
Height
1448 1443 1444 1441 1437 1436 1436 1432 1429 1416 1410 1400 1397 1397 1395 1394 1392 1390 1389 1387 1386 1385 1383 1382 1380 1379 1377 1376 1374 1373 1371 1370 1369 1368 1368 1369 1370 1372 1375 1378 1381 1385 1388 1391
1445 1439 1438 1433 1426 1424 1423 1421 1418 1413 1406 1396 1395 1394 1392 1391 1390 1388 1387 1385 1384 1383 1381 1380 1378 1376 1375 1373 1372 1370 1369 1368 1366 1365 1365 1365 1366 1368 1371 1373 1376 1379 1382 1386
1441 1437 1435 1429 1416 1413 1412 1409 1408 1406 1398 1392 1392 1390 1389 1388 1387 1386 1385 1384 1382 1381 1380 1378 1376 1374 1372 1370 1369 1368 1367 1366 1364 1363 1363 1362 1363 1364 1366 1369 1371 1374 1377 1381
1441 1441 1436 1411 1404 1404 1404 1401 1399 1396 1392 1390 1389 1387 1386 1386 1385 1383 1382 1381 1380 1379 1377 1375 1373 1372 1370 1368 1366 1365 1364 1363 1362 1360 1360 1360 1360 1361 1363 1365 1367 1370 1373 1376
1439 1437 1424 1409 1402 1402 1402 1398 1393 1392 1389 1387 1386 1385 1384 1383 1382 1381 1380 1379 1377 1376 1374 1373 1371 1369 1368 1366 1364 1363 1361 1359 1358 1357 1357 1356 1357 1358 1359 1361 1363 1366 1369 1372
1434 1431 1421 1404 1398 1395 1399 1399 1389 1387 1386 1385 1385 1388 1383 1380 1380 1379 1378 1376 1375 1373 1372 1370 1369 1367 1366 1364 1362 1360 1359 1357 1355 1354 1354 1354 1354 1355 1356 1357 1359 1362 1365 1368
1426 1423 1411 1398 1395 1395 1403 1396 1387 1385 1384 1383 1383 1383 1380 1378 1377 1376 1375 1374 1372 1371 1369 1368 1366 1365 1363 1361 1360 1359 1357 1355 1353 1352 1351 1351 1351 1351 1352 1354 1356 1358 1361 1364
1421 1418 1407 1391 1392 1394 1390 1385 1384 1382 1381 1380 1379 1378 1376 1375 1374 1373 1371 1370 1369 1367 1366 1365 1363 1362 1360 1359 1358 1356 1355 1353 1351 1349 1348 1348 1347 1348 1349 1351 1352 1354 1357 1360
1405 1397 1388 1386 1384 1383 1382 1382 1380 1379 1378 1378 1376 1374 1373 1372 1371 1369 1368 1367 1365 1364 1362 1361 1361 1359 1358 1357 1355 1354 1352 1350 1348 1347 1346 1345 1344 1345 1346 1347 1348 1351 1353 1356
1395 1387 1383 1382 1380 1379 1379 1377 1376 1375 1375 1373 1372 1370 1369 1368 1367 1365 1364 1363 1362 1361 1359 1358 1358 1356 1355 1354 1353 1351 1349 1347 1346 1344 1343 1342 1342 1343 1343 1344 1346 1348 1350 1352
1387 1381 1379 1376 1375 1374 1373 1372 1371 1370 1370 1368 1367 1366 1365 1363 1362 1361 1360 1359 1358 1357 1356 1355 1354 1353 1352 1351 1350 1348 1347 1345 1343 1342 1341 1340 1340 1340 1340 1342 1343 1345 1347 1349
1376 1372 1373 1369 1368 1369 1368 1367 1366 1365 1364 1363 1362 1360 1359 1358 1357 1356 1355 1354 1353 1353 1352 1351 1351 1350 1349 1348 1347 1345 1344 1342 1341 1339 1338 1338 1337 1337 1338 1340 1341 1342 1344 1346
1365 1364 1364 1363 1363 1363 1362 1361 1361 1360 1359 1357 1356 1355 1354 1353 1352 1350 1350 1349 1348 1348 1348 1347 1346 1346 1345 1345 1343 1342 1341 1340 1339 1338 1337 1336 1336 1335 1335 1337 1338 1339 1341 1343
1360 1360 1359 1358 1358 1357 1357 1356 1355 1354 1353 1352 1351 1350 1348 1347 1346 1345 1344 1344 1344 1343 1343 1342 1341 1341 1341 1341 1340 1339 1338 1337 1336 1335 1335 1334 1334 1334 1334 1334 1334 1335 1338 1340
1354 1354 1353 1353 1352 1352 1351 1350 1349 1348 1347 1346 1345 1344 1343 1342 1341 1340 1339 1339 1339 1338 1337 1337 1336 1336 1337 1336 1336 1335 1334 1333 1333 1332 1332 1332 1332 1332 1332 1332 1333 1333 1334 1337
1349 1349 1348 1348 1347 1346 1346 1345 1344 1342 1341 1340 1339 1338 1338 1337 1336 1335 1334 1334 1334 1333 1332 1332 1332 1332 1332 1332 1331 1331 1330 1330 1330 1329 1329 1329 1329 1330 1330 1330 1330 1331 1332 1334
1345 1344 1343 1343 1342 1341 1341 1340 1339 1338 1337 1335 1334 1334 1333 1332 1331 1330 1329 1329 1329 1328 1328 1327 1327 1327 1327 1327 1327 1327 1326 1326 1326 1326 1326 1327 1327 1327 1328 1328 1328 1328 1330 1332
1340 1340 1339 1339 1338 1337 1336 1335 1334 1333 1332 1331 1330 1329 1328 1327 1326 1325 1324 1324 1323 1322 1322 1322 1322 1322 1322 1322 1322 1322 1322 1322 1323 1323 1323 1324 1324 1325 1325 1325 1326 1326 1327 1329
1337 1336 1336 1335 1334 1333 1332 1331 1330 1329 1328 1327 1326 1324 1323 1322 1321 1320 1320 1319 1318 1317 1317 1318 1317 1317 1318 1318 1318 1318 1318 1319 1319 1320 1320 1321 1321 1322 1322 1323 1323 1324 1325 1326
1335 1334 1333 1332 1331 1330 1329 1328 1326 1325 1324 1323 1322 1320 1319 1318 1317 1316 1315 1314 1313 1313 1313 1313 1313 1313 1313 1313 1314 1314 1314 1315 1315 1316 1317 1317 1318 1318 1319 1320 1320 1321 1322 1324
1333 1332 1331 1330 1329 1328 1326 1325 1323 1322 1320 1320 1318 1317 1315 1314 1313 1311 1310 1309 1308 1308 1308 1308 1308 1308 1308 1309 1309 1310 1310 1310 1311 1312 1313 1313 1314 1315 1315 1316 1317 1318 1320 1321
1332 1331 1330 1328 1327 1325 1324 1322 1321 1319 1317 1316 1314 1313 1311 1309 1308 1307 1306 1305 1304 1304 1303 1303 1303 1303 1303 1304 1304 1305 1305 1306 1307 1308 1309 1310 1311 1311 1312 1313 1314 1316 1317 1319
1330 1329 1328 1326 1325 1323 1321 1320 1318 1316 1314 1313 1311 1309 1307 1306 1304 1303 1301 1300 1299 1299 1298 1298 1298 1299 1299 1300 1300 1301 1301 1302 1303 1304 1305 1306 1307 1308 1309 1310 1312 1313 1315 1317
1328 1327 1326 1324 1322 1320 1318 1316 1315 1313 1311 1309 1307 1306 1304 1302 1300 1299 1297 1296 1295 1295 1294 1294 1294 1295 1296 1296 1297 1297 1298 1299 1300 1301 1302 1303 1304 1305 1306 1308 1309 1311 1313 1315
1326 1324 1323 1321 1319 1317 1315 1313 1311 1309 1307 1305 1303 1302 1300 1299 1297 1295 1294 1292 1291 1291 1290 1290 1291 1291 1292 1292 1293 1294 1295 1296 1297 1298 1299 1300 1301 1302 1304 1306 1307 1308 1310 1312
1323 1321 1320 1318 1317 1315 1313 1310 1308 1306 1304 1301 1299 1298 1297 1295 1293 1292 1290 1289 1288 1288 1287 1287 1287 1287 1288 1289 1290 1290 1291 1293 1294 1295 1296 1297 1299 1300 1301 1303 1305 1306 1308 1311
1319 1318 1316 1315 1313 1312 1310 1308 1305 1303 1301 1299 1297 1295 1293 1292 1290 1289 1288 1286 1285 1285 1284 1284 1284 1284 1285 1286 1287 1288 1289 1290 1291 1292 1294 1295 1296 1298 1299 1301 1303 1305 1307 1309